| time (UTC) | temp C | wind direction | speed KPH | gust KPH | rain 1hr cm | rain 24hr cm | rain mn cm | humidity % | barometer mb |
| 20260902090440 | 16 | 231 | 29.0 | 32.2 | 0.00 | 0.00 | 0.00 | 81 | 1007.1 |
| 20260902084438 | 16 | 234 | 29.0 | 33.8 | 0.00 | 0.00 | 0.00 | 82 | 1007.1 |
| 20260902074110 | 15 | 241 | 29.0 | 33.8 | 0.00 | 0.00 | 0.00 | 88 | 1007.2 |
| 20260902070438 | 15 | 243 | 30.6 | 35.4 | 0.00 | 0.00 | 0.00 | 90 | 1007.0 |
| 20260902064438 | 15 | 244 | 25.7 | 30.6 | 0.00 | 0.00 | 0.00 | 90 | 1006.8 |
| 20260902062439 | 14 | 245 | 30.6 | 32.2 | 0.00 | 0.00 | 0.00 | 89 | 1006.9 |
| 20260902060440 | 15 | 245 | 25.7 | 32.2 | 0.00 | 0.00 | 0.00 | 90 | 1007.0 |
| 20260902054439 | 15 | 239 | 22.5 | 25.7 | 0.00 | 0.00 | 0.00 | 91 | 1007.0 |
| 20260902052439 | 15 | 239 | 20.9 | 25.7 | 0.00 | 0.00 | 0.00 | 91 | 1007.0 |
| 20260902050440 | 15 | 243 | 24.1 | 27.4 | 0.00 | 0.00 | 0.00 | 91 | 1007.0 |
| 20260902024442 | 15 | 209 | 17.7 | 19.3 | 0.00 | 0.00 | 0.00 | 94 | 1007.3 |
| 20260902000439 | 15 | 205 | 19.3 | 20.9 | 0.00 | 0.00 | 0.00 | 87 | 1007.8 |
| 20260901230440 | 16 | 210 | 17.7 | 17.7 | 0.00 | 0.00 | 0.00 | 86 | 1008.0 |
| 20260901214439 | 15 | 196 | 16.1 | 17.7 | 0.00 | 0.00 | 0.00 | 81 | 1008.2 |
| 20260901210438 | 15 | 193 | 14.5 | 16.1 | 0.00 | 0.00 | 0.00 | 80 | 1008.2 |
| 20260901204438 | 15 | 183 | 14.5 | 17.7 | 0.00 | 0.00 | 0.00 | 80 | 1008.2 |
| 20260901200438 | 15 | 167 | 14.5 | 16.1 | 0.00 | 0.00 | 0.00 | 78 | 1008.3 |
| 20260901184438 | 15 | 135 | 6.4 | 8.0 | 0.00 | 0.00 | 0.00 | 76 | 1008.3 |
| 20260901182437 | 15 | 115 | 6.4 | 8.0 | 0.00 | 0.00 | 0.00 | 74 | 1008.3 |
| 20260901180436 | 15 | 92 | 4.8 | 6.4 | 0.00 | 0.00 | 0.00 | 73 | 1008.3 |
| 20260901174437 | 15 | 56 | 4.8 | 6.4 | 0.00 | 0.00 | 0.00 | 72 | 1008.2 |
| 20260901172439 | 15 | 33 | 4.8 | 6.4 | 0.00 | 0.00 | 0.00 | 71 | 1008.2 |
| 20260901154435 | 15 | 359 | 8.0 | 9.7 | 0.00 | 0.00 | 0.00 | 74 | 1008.1 |
| 20260901150436 | 15 | 356 | 6.4 | 9.7 | 0.00 | 0.00 | 0.00 | 72 | 1008.2 |
| 20260901144436 | 15 | 6 | 8.0 | 9.7 | 0.00 | 0.00 | 0.00 | 75 | 1008.3 |
| 20260901142436 | 15 | 5 | 9.7 | 11.3 | 0.00 | 0.00 | 0.00 | 74 | 1008.3 |
| 20260901140436 | 15 | 5 | 11.3 | 12.9 | 0.00 | 0.00 | 0.00 | 76 | 1008.5 |
| 20260901134436 | 15 | 357 | 11.3 | 12.9 | 0.00 | 0.00 | 0.00 | 76 | 1008.5 |
| 20260901132436 | 15 | 344 | 12.9 | 14.5 | 0.00 | 0.00 | 0.00 | 73 | 1008.5 |
| 20260901130435 | 15 | 349 | 14.5 | 16.1 | 0.00 | 0.00 | 0.00 | 76 | 1008.4 |
| 20260901124436 | 15 | 341 | 12.9 | 16.1 | 0.00 | 0.00 | 0.00 | 75 | 1008.4 |
| 20260901114436 | 15 | 339 | 16.1 | 19.3 | 0.00 | 0.00 | 0.00 | 80 | 1008.3 |
| 20260901112434 | 15 | 347 | 12.9 | 16.1 | 0.00 | 0.00 | 0.00 | 79 | 1008.2 |
| 20260901104435 | 15 | 346 | 16.1 | 17.7 | 0.00 | 0.00 | 0.00 | 82 | 1008.2 |